COSMOS 2491 DEB, 44992

Orbit data source: Space-Track

COSMOS 2491 DEB, 44992 is space debris in LEO originally from a launch on Wed, 25 Dec 2013 UTC launched from the Plesetsk Missile And Space Complex (PKMTR). Debris objects in space refer to the collection of defunct objects orbiting the Earth. Examples of debris include non-operational satellites, rocket bodies, and fragments generated from explosions, collisions, or faulty payload assembly.

Loading next visibility...
Identifier
44992, 2013-076N
Orbit
LEO
Country
Flag of CISCIS
Related business
Manufacturer
TsNIIKhM
Mission
Spacecraft
Bus & Motor
Unknown
Mass
Unknown
Launch date (UTC)
2013-12-25 (12 years ago)
Launch vehicle
Unknown
Launch site
Plesetsk Missile And Space Complex (PKMTR)
Object type
Payload
Rocket body
Debris
Shape & HBR
Unknown shape, 0.1 m
Radar Cross Section
Small (<0.1 m²)

Expand to show TLE details & history
Last TLE update: 6 months ago

TLE from 6 months ago
0 COSMOS 2491 DEB
1 44992U 13076N   25314.67147177  .00004381  00000-0  26168-1 0  9990
2 44992  82.4794 288.2883 0109102  18.5673 341.9347 12.55459754266389
Epoch: 2025-11-10T16:06Z
TLE epoch observation values (Epoch: 2025-11-10T16:06:55.160Z)
Latitude
-0.00002°
Longitude
-3.51057°
Altitude
1,363.425 km
Speed
7.214 km/s
True Right ascension
19h 13m 09s
True Declination
0° 00' 00"
Sunlit
Object was in daylight at epoch
Visualization orbit readout
Latitude
Unknown
Longitude
Unknown
Altitude
Unknown
Speed
Unknown
Apparent Right ascension
Unknown
Apparent Declination
Unknown
Sunlit
N/A
Visualization observer readout
Local Sidereal Time
17:04:30
Azimuth
Unknown
Elevation
Unknown
Doppler factor
Unknown
Orbital elements
Apogee altitude
1,524.362 km
Perigee altitude
1,353.787 km
Semi-major axis
7,817.212 km
Eccentricity
0.01091
Inclination
82.4794°
RAAN
288.2883°
Arg. of periapsis
18.5673°
True anomaly
341.54192°
Mean anomaly
341.9347°
Eccentric anomaly
341.73882°
Mean motion
3.14026 °/min
Orbital period
114.64 mins
BSTAR
0.026168
Loading maneuver chart data...
Computing Atmospheric mass density...
Loading historical data...
Loading historical data...
Loading historical data...
Loading historical data...
Loading historical data...
Loading historical data...
Loading historical data...

Documentation

Showing up to 5 results
|